This is the latest recevied weather packets stored in our database for station/object K3SV. If no packets are shown the sender has not sent any weather packets the latest 10 day(s).
| Time | Temp. | Humidity | Pressure | Rain* | Wind** | Luminosity | Snow |
|---|---|---|---|---|---|---|---|
| 1778171549 | 31.11° C | 44% | 1015.8 hPa | 0 mm | - | 724 W/m² | - |
| 1778171244 | 30.56° C | 45% | 1015.7 hPa | 0 mm | - | 716 W/m² | - |
| 1778170941 | 30.56° C | 43% | 1015.7 hPa | 0 mm | - | 711 W/m² | - |
| 1778170637 | 31.11° C | 42% | 1015.9 hPa | 0 mm | - | 703 W/m² | - |
| 1778170334 | 30.56° C | 44% | 1015.9 hPa | 0 mm | - | 698 W/m² | - |
| 1778170030 | 30.56° C | 38% | 1016 hPa | 0 mm | - | 693 W/m² | - |
| 1778169727 | 30.56° C | 39% | 1016 hPa | 0 mm | - | 685 W/m² | - |
| 1778169422 | 30.56° C | 43% | 1016.3 hPa | 0 mm | - | 672 W/m² | - |
| 1778169119 | 30.56° C | 41% | 1016.1 hPa | 0 mm | - | 665 W/m² | - |
| 1778168815 | 30° C | 43% | 1016.2 hPa | 0 mm | - | 657 W/m² | - |
| 1778168513 | 30° C | 42% | 1016.5 hPa | 0 mm | - | 648 W/m² | - |
| 1778168210 | 29.44° C | 41% | 1016.1 hPa | 0 mm | - | 637 W/m² | - |
| 1778167906 | 30° C | 38% | 1016.5 hPa | 0 mm | - | 628 W/m² | - |
| 1778167602 | 30.56° C | 41% | 1016.4 hPa | 0 mm | - | 614 W/m² | - |
| 1778167298 | 30° C | 41% | 1016.3 hPa | 0 mm | - | 608 W/m² | - |
| 1778166994 | 30° C | 39% | 1016.4 hPa | 0 mm | - | 597 W/m² | - |
| 1778166692 | 28.89° C | 41% | 1016.4 hPa | 0 mm | - | 586 W/m² | - |
| 1778166389 | 28.89° C | 43% | 1016.6 hPa | 0 mm | - | 575 W/m² | - |
| 1778166086 | 28.89° C | 44% | 1016.3 hPa | 0 mm | - | 567 W/m² | - |
| 1778165786 | 28.89° C | 43% | 1016.3 hPa | 0 mm | - | 552 W/m² | - |
| 1778165484 | 28.89° C | 45% | 1016.4 hPa | 0 mm | - | 540 W/m² | - |
| 1778165180 | 28.89° C | 44% | 1016.4 hPa | 0 mm | - | 525 W/m² | - |
| 1778164879 | 28.33° C | 48% | 1016.3 hPa | 0 mm | - | 519 W/m² | - |
| 1778164574 | 28.89° C | 54% | 1016.5 hPa | 0 mm | - | 503 W/m² | - |
| 1778164272 | 28.33° C | 54% | 1016.4 hPa | 0 mm | - | 491 W/m² | - |
* Rain latest hour (hover to see other rain measurements)
** Current wind speed in m/s (hover to see current wind gust speed)